map of YWK home
YWK - Airport
Location
City:  Wabush, Newfoundland and Labrador, Canada
Name:Wabush Airport
ICAO:CYWK
IATA:YWK

Details
Type:Airport (Airfield)
Use:Public/Civil
Latitude:5255'22"N (52.922778)
Longitude:6651'53"W (-66.864721)
Elevation:1809 ft (551 m)
Variation:19.55W (WMM2015v2 magnetic declination)
0.22 annual change
Runways:1
Longest:6002 ft (1829 m), paved

Time
Time Zone:UTC-3:30 (DST-2:30)
Local Time:

Weather
METAR:CYWK 041400Z 27009G17KT 15SM FEW035 M17/M21 A2967 RMK SC2 SLP108
TAF:CYWK 041341Z 0414/0502 VRB03KT P6SM SCT030
TEMPO 0414/0418 BKN020
FM041800 30006KT P6SM FEW020
RMK NXT FCST BY 042000Z

Related Locations
Nearby:
Farthest:YWKS: 11475 mi / 18468 km
Wilkins Runway (Casey), Upper Peterson Glacier, AQ

Find:

   beyond  
but within

Other Information
Maps:
NOTAMs:
Links:
Sources:

  
  • flag of Canada
  • flag of Newfoundland and Labrador
  

Airport Diagram

Airport diagram for YWK

Airport diagram PDF

Sectional Chart

Flight Planning
at skyvector.com

Satellite Image

Google Maps Satellite view

 

Copyright © 2004-2019 Karl L. Swartz. All rights reserved.
The Great Circle Mapper name and logo are trademarks of the Great Circle Mapper.
All other trademarks mentioned herein belong to their respective owners.
Please see credits for attibutions and further copyright information.

  Follow gcmap on Facebook Follow gcmap on Twitter GCmap on LinkedIn

hCard Microformat

Geo Microformat